Tracking 19854 objects as of 21-Sep-2019
HD Live streaming from Space Station
objects crossing your sky now

TITAN 3C TRANSTAGE DEB

Track TITAN 3C TRANSTAGE DEB now!
10-day predictions


NORAD ID: 2799
Int'l Code: 1965-082KX
Perigee: 650.9 km
Apogee: 703.4 km
Inclination: 32.1 °
Period: 98.1 minutes
Semi major axis: 7048 km
RCS: 0.0572 m2 (small)
Launch date: October 15, 1965
Source: United States (US)
Launch site: AIR FORCE EASTERN TEST RANGE (AFETR)

Note: This is SATELLITE DEBRIS
aabbcc
Your satellite tracking list
Your tracking list is empty




NASA's NSSDC Master Catalog

Two Line Element Set (TLE):
1  2799U 65082KX  19264.50959472  .00000157  00000-0  20040-4 0  9994
2  2799  32.0548 313.8260 0037257  91.2541  48.2481 14.67200505794018
Source of the keplerian elements: AFSPC